{"data":{"norad_id":41944,"intl_designator":"2017-007A","name":"TELKOM 3S","alt_names":[],"object_type":"PAYLOAD","status":"ACTIVE","operator":null,"country":"INDO","launch_date":"2017-02-14","launch_site_code":"FRGUI","launch_vehicle":null,"mission":null,"orbit_class":"UNKNOWN","rcs_meters":10.8657,"size_class":null,"mass_kg":null,"dimensions":null,"purposes":["comms"],"wikipedia_slug":null,"has_3d_model":false,"image_url":null,"decayed_at":null,"tle_current":{"epoch":"2026-09-20T00:22:31.219968Z","epoch_age_seconds":67939,"freshness":"FRESH","line1":"1 41944U 17007A   26263.01563912 -.00000367  00000+0  00000+0 0  9998","line2":"2 41944   0.0168 153.3785 0002315  21.8900 307.2939  1.00272559 35093","mean_motion":1.00272559,"eccentricity":0.0002315,"inclination_deg":0.0168,"raan_deg":153.3785,"arg_perigee_deg":21.89,"mean_anomaly_deg":307.2939,"bstar":0,"rev_number":3509,"period_min":1436.085818853,"perigee_km":35776.616897071,"apogee_km":35796.139067508,"semimajor_km":42164.514982289,"source":"CELESTRAK","updated_at":"2026-09-20T09:00:35.251289Z"}}}